Regional Weather Roundup
Issued by NWS

Home | Current Version | Previous Version | Graphics & Text | Print | Product List | Glossary Off
Versions: 1 2 3 4 5 6 7 8 9 10 11 12 13 14 15 16 17 18 19 20 21 22 23 24 25 26 27 28 29 30 31 32 33 34 35 36 37 38 39 40 41 42 43 44 45 46 47 48 49 50

000
ASUS43 KDTX 031601
RWRMI
MICHIGAN HOURLY REGIONAL WEATHER ROUNDUP
NATIONAL WEATHER SERVICE DETROIT/PONTIAC MI
1100 AM EST TUE MAR 03 2015

NOTE: "FAIR" INDICATES FEW OR NO CLOUDS BELOW 12,000 FEET WITH NO
SIGNIFICANT WEATHER AND/OR OBSTRUCTION TO VISIBILITY.

MIZ047>049-052>055-059>063-066>070-074>076-081>083-031700-
SOUTHEAST LOWER MICHIGAN

CITY           SKY/WX    TMP DP  RH WIND       PRES   REMARKS
ADRIAN         FRZ RAIN  26  21  81 S16       29.93F WCI  14
ALMA           SNOW      22  21  95 SE14      29.86F VSB 1/4 WCI   9
ANN ARBOR      FRZ RAIN  25  21  85 S13       29.94F FOG     WCI  14
BAD AXE        SNOW      21  19  91 S9        29.95F VSB 1/2 WCI  11
CARO           LGT SNOW  22  19  89 SE10      29.92F VSB 3/4 WCI  11
DETROIT CITY   FRZ RAIN  25  20  81 SE13      29.96F VSB 1/4 WCI  14
DETROIT        FRZ RAIN  25  22  88 SE10      29.97F FOG     WCI  15
FLINT          HVY SNOW  24  19  81 SE12      29.93F VSB 1/4 WCI  13
GROSSE ILE     MIX PCPN  25  21  86 SE13      29.95F WCI  13
HILLSDALE      MIX PCPN  25  22  87 SE14G22   29.85F WCI  13
HOWELL         LGT SNOW  22  20  91 SE13      29.89F WCI  10

CITY           SKY/WX    TMP DP  RH WIND       PRES   REMARKS
JACKSON        FRZ RAIN  25  21  85 SE16G25   29.87F FOG     WCI  12
LAMBERTVILLE   MIX PCPN  28  23  80 SE6       29.95F WCI  22
LANSING        MIX PCPN  23  19  85 SE12      29.87F FOG     WCI  12
LAPEER         SNOW      22  19  89 SE8       29.93F VSB 1/2 WCI  13
MASON          LGT SNOW  24  20  87 SE13      29.88F WCI  12
MONROE         MIX PCPN  27  21  80 SE10G16   29.94F WCI  17
MT. CLEMENS    LGT SNOW  23  19  86 SE14      29.93F VSB 5/8 WCI  11
PONTIAC        FRZ RAIN  21  19  92 SE9       29.91F FOG     WCI  11
PORT HOPE        N/A     22  17  81 S15G23    29.94F WCI   9
PORT HURON     SNOW      21  19  93 SE13      29.99F VSB 1/2 WCI   9
TRI CITIES     SNOW      24  20  84 SE13      29.90F VSB 1/4 WCI  12
TROY           LGT SNOW  25  21  84 SE6       29.97F WCI  18
SAGINAW HB     LGT SNOW  25  23  93 SE9       29.91F VSB 3/4 WCI  15
$$
MIZ043>046-050>051-056>058-064>065-071>073-077>080-031700-
SOUTHWEST LOWER MICHIGAN

CITY           SKY/WX    TMP DP  RH WIND       PRES   REMARKS
BATTLE CREEK   FRZ RAIN  27  22  81 S16       29.84F WCI  15
BENTON HARBOR  FRZ RAIN  27  25  92 SE14G23   29.76F FOG     WCI  16
BIG RAPIDS     SNOW      23  22  94 SE13G18   29.80F VSB 1/2 WCI  12
COLDWATER      MIX PCPN  26  22  85 SE12G17   29.85F WCI  15
FREMONT        LGT SNOW  24  21  91 SE10      29.78F WCI  13
HOLLAND        MIX PCPN  26  22  84 SE15      29.76F FOG     WCI  14
GRAND RAPIDS   LGTSLEET  23  19  85 SE13      29.80F FOG     WCI  11
IONIA          LGT SNOW  24  21  91 SE18      29.82F WCI   9
KALAMAZOO      FRZ RAIN  26  22  84 SE10G21   29.81F WCI  16
LUDINGTON      LGT SNOW  26  22  85 SE12      29.77F WCI  15
MARSHALL       MIX PCPN  25  21  85 SE12      29.86F WCI  14
MOUNT PLEASANT SNOW      23  20  90 SE10      29.83F VSB 1/2 WCI  12
MUSKEGON       SNOW      25  21  85 SE16      29.78F VSB 1/2 WCI  12
SOUTH HAVEN    LGT SNOW  29  25  86 SE8G16    29.76F WCI  21
$$
MIZ016>042-031700-
NORTHERN LOWER MICHIGAN

CITY           SKY/WX    TMP DP  RH WIND       PRES   REMARKS
ALPENA         LGT SNOW  23  19  85 S14       29.89F VSB 3/4 WCI  11
BEAVER ISLAND  LGT SNOW  23  19  84 S13       29.78F VSB 1   WCI  12
BELLAIRE       LGT SNOW  24  20  85 S10       29.82F WCI  13
CADILLAC       LGT SNOW  21  18  87 SE10      29.75F WCI  10
CHARLEVOIX     LGT SNOW  23  20  87 S14G21    29.83F VSB 3/4 WCI  11
FRANKFORT      LGT SNOW  24  21  90 S12       29.78F VSB 1   WCI  13
GAYLORD        SNOW      20  18  92 S9        29.78F VSB 1/2 WCI   9
GRAYLING       SNOW      21  18  90 SE10      29.81F VSB 1/2 WCI   9
HARBOR SPRINGS LGT SNOW  24  19  83 S7        29.80F VSB 1   WCI  16
HOUGHTON LAKE  LGT SNOW  21  17  84 SE13      29.82F FOG     WCI   9
MANISTEE       CLOUDY    25  18  74 SE7       29.79F VSB 3/4 WCI  17
OSCODA         LGT SNOW  24  21  91 S13G18    29.91F VSB 3/4 WCI  12
PELLSTON       CLOUDY    23  16  74 SE13      29.80F WCI  11
ROGERS CITY    LGT SNOW  22  20  94 SE8       29.88F VSB 3/4 WCI  12
TRAVERSE CITY  LGT SNOW  24  19  81 S8        29.79F VSB 1   WCI  15
$$
MIZ007>008-015-031700-
EASTERN UPPER MICHIGAN

CITY           SKY/WX    TMP DP  RH WIND       PRES   REMARKS
KINROSS        CLOUDY    19  18  93 SE10      29.80F VSB 1   WCI   8
MACKINAC ISLAN CLOUDY    22  17  81 SE14G21   29.79F WCI   9
NEWBERRY       CLOUDY    20  18  90 S13G18    29.74F WCI   7
S. S. MARIE    LGT SNOW  16  12  84 E7        29.81F VSB 3/4 WCI   6
MUNISING         N/A     26  20  77 S8        29.71F WCI  18
$$
MIZ004>006-011>014-085-031700-
CENTRAL UPPER MICHIGAN

CITY           SKY/WX    TMP DP  RH WIND       PRES   REMARKS
MANISTIQUE     CLOUDY    24  21  90 SE12G18   29.75F WCI  12
ESCANABA       CLOUDY    27  25  93 S13G20    29.73F VSB 1/2 WCI  16
MENOMINEE      CLOUDY    27  25  93 S9G17     29.70F WCI  17
SAWYER-GWINN   CLOUDY    23  18  80 S10       29.68F WCI  12
$$
MIZ001>003-009>011-084-031700-
WESTERN UPPER MICHIGAN

CITY           SKY/WX    TMP DP  RH WIND       PRES   REMARKS
IRON MOUNTAIN  SNOW      21  18  88 S5        29.67F VSB 1/2 WCI  15
HOUGHTON       LGT SNOW  21  17  84 SW10      29.63F VSB 1   WCI  10
COPPER HARBOR    N/A     23  18  81 SW8       29.65F WCI  14
IRONWOOD       CLOUDY    19  16  86 S9        29.61F VSB 1/2 WCI   9
$$

ABBREVIATIONS USED IN REMARKS
   TC - TEMPERATURE IN CELSIUS
  WCI - WIND CHILL INDEX
   HX - HEAT INDEX
  VSB - VISIBILITY




USA.gov is the U.S. government's official web portal to all federal, state and local government web resources and services.